カタログに戻る

FENGYUN 1C DEB

運用中SSO
NORAD 31383·DEBRIS·🇨🇳 China

打ち上げ May 10, 1999 から Taiyuan Satellite Launch Center

Loading…

次のパス (今後24時間)

TLE

最新Source: Space-Track

元期: Sep 14, 2026, 10:14 UTC

1 31383U 99025BSP 26257.42650615  .00000815  00000-0  49620-3 0  9992
2 31383  99.0426 324.2732 0106986 269.3310 153.5638 14.06262163992436

AllMySatでFENGYUN 1C DEBをリアルタイム追跡

Download on the App Store